This is the latest recevied weather packets stored in our database for station/object KD9ZDW. If no packets are shown the sender has not sent any weather packets the latest 10 day(s).
| Time | Temp. | Humidity | Pressure | Rain* | Wind** | Luminosity | Snow |
|---|---|---|---|---|---|---|---|
| 1777825792 | 14.44° C | 40% | 1017.3 hPa | 0 mm | - | 278 W/m² | - |
| 1777825490 | 15° C | 41% | 1017.5 hPa | 0 mm | - | 297 W/m² | - |
| 1777825187 | 14.44° C | 40% | 1017.5 hPa | 0 mm | - | 309 W/m² | - |
| 1777824884 | 14.44° C | 42% | 1017.4 hPa | 0 mm | - | 348 W/m² | - |
| 1777824580 | 13.89° C | 43% | 1017.7 hPa | 0 mm | - | 249 W/m² | - |
| 1777824277 | 14.44° C | 44% | 1017.7 hPa | 0 mm | - | 205 W/m² | - |
| 1777823973 | 13.89° C | 44% | 1017.7 hPa | 0 mm | - | 288 W/m² | - |
| 1777823670 | 14.44° C | 43% | 1017.9 hPa | 0 mm | - | 299 W/m² | - |
| 1777823367 | 13.89° C | 42% | 1018 hPa | 0 mm | - | 359 W/m² | - |
| 1777823065 | 13.89° C | 44% | 1018 hPa | 0 mm | - | 324 W/m² | - |
| 1777822762 | 13.89° C | 45% | 1018.2 hPa | 0 mm | - | 323 W/m² | - |
| 1777822460 | 13.33° C | 44% | 1018.2 hPa | 0 mm | - | 338 W/m² | - |
| 1777822157 | 13.89° C | 48% | 1018.1 hPa | 0 mm | - | 289 W/m² | - |
| 1777821855 | 13.33° C | 47% | 1018.2 hPa | 0 mm | - | 272 W/m² | - |
| 1777821552 | 12.78° C | 45% | 1018.3 hPa | 0 mm | - | 372 W/m² | - |
| 1777821250 | 12.78° C | 46% | 1018.1 hPa | 0 mm | - | 234 W/m² | - |
| 1777820946 | 12.78° C | 47% | 1018.2 hPa | 0 mm | - | 315 W/m² | - |
| 1777820643 | 12.78° C | 47% | 1018.2 hPa | 0 mm | - | 378 W/m² | - |
| 1777820339 | 13.33° C | 49% | 1018.2 hPa | 0 mm | - | 224 W/m² | - |
| 1777820037 | 12.78° C | 47% | 1018 hPa | 0 mm | - | 291 W/m² | - |
| 1777819734 | 12.22° C | 49% | 1018 hPa | 0 mm | - | 284 W/m² | - |
| 1777819432 | 12.78° C | 48% | 1018.2 hPa | 0 mm | - | 169 W/m² | - |
| 1777819129 | 12.78° C | 47% | 1018.3 hPa | 0 mm | - | 224 W/m² | - |
| 1777818826 | 12.22° C | 50% | 1018.3 hPa | 0 mm | - | 207 W/m² | - |
| 1777818522 | 12.22° C | 48% | 1018 hPa | 0 mm | - | 146 W/m² | - |
* Rain latest hour (hover to see other rain measurements)
** Current wind speed in m/s (hover to see current wind gust speed)